Hourly Data Report for July 29, 2009

PITT MEADOWS CS
BRITISH COLUMBIA

49°12'29.964" N
122°41'24.076" W
5.00 m
1106178
71775
WMM

Download Data

Hourly Data (July 2009)
Hourly Data Report for July 29, 2009
TIME
LST
Temp Definition
°C
Dew Point Definition
°C
Rel Hum Definition
%
Precip. Amount Definition
mm

Wind Dir Definition
10's deg

Wind Spd Definition
km/h
Visibility Definition
km
Stn Press Definition
kPa
Hmdx Definition


Wind Chill Definition


Weather Definition


00:00 22.1 19.6 86   32 2   100.82 29   LegendNANA
01:00 21.9 19.4 86   30 2   100.85 29   LegendNANA
02:00 20.6 19.1 91     0   100.87 27   LegendNANA
03:00 20.2 19.2 94     0   100.87 27   LegendNANA
04:00 18.7 17.9 95     0   100.89     LegendNANA
05:00 19.3 18.3 94     0   100.91     LegendNANA
06:00 20.7 19.5 93     0   100.94 28   LegendNANA
07:00 23.6 19.6 78     0   100.98 31   LegendNANA
08:00 25.0 19.2 70   29 2   101.00 32   LegendNANA
09:00 26.9 18.3 59   21 2   100.99 33   LegendNANA
10:00 30.4 18.8 50   19 4   100.97 37   LegendNANA
11:00 32.3 17.1 40   23 6   100.94 38   LegendNANA
12:00 34.4 15.8 33   24 4   100.90 39   LegendNANA
13:00 36.2 15.5 29   26 4   100.83 40   LegendNANA
14:00 37.3 15.4 27   28 4   100.77 42   LegendNANA
15:00 36.6 16.9 31   26 11   100.69 42   LegendNANA
16:00 37.5 16.4 29   28 11   100.62 42   LegendNANA
17:00 37.1 16.0 29   28 11   100.58 42   LegendNANA
18:00 34.3 17.1 36   26 6   100.58 40   LegendNANA
19:00 32.6 20.0 48     0   100.59 40   LegendNANA
20:00 28.8 19.7 58     0   100.60 36   LegendNANA
21:00 27.0 19.6 64   9 2   100.67 34   LegendNANA
22:00 25.0 20.3 75     0   100.71 33   LegendNANA
23:00 24.4 20.0 76   34 6   100.76 32   LegendNANA

Notes on Data Quality.

Legend

  • E = Estimated
  • M = Missing
  • NA = Not Available*
  • [empty] = Indicates an unobserved value
Date modified: